This demonstration page uses our WeatherBlox Daily Observations layout. Learn more.

Left ArrowRight Arrow

44.8408, -93.29828

Hourly Observations for November 22, 2015

Temp ( °F °C ) Dew Point ( °F °C ) Humidity (%) Winds ( mph kmh ) Pressure ( in mb ) Visibility ( mi km ) Precip ( " mm )
12:53 am 00:53 Mostly Cloudy 20 -6.7 14 -10 78 78 S 7 11 30.12 1020 10 16 0.00 0.00
1:53 am 01:53 Mostly Cloudy 20 -6.7 14 -10 78 78 S 6 9 30.10 1019 10 16 0.00 0.00
2:53 am 02:53 Mostly Cloudy 20 -6.7 14 -10 78 78 SSW 3 6 30.09 1019 10 16 0.00 0.00
3:53 am 03:53 Mostly Cloudy 18 -7.8 14 -10 84 84 SE 6 9 30.08 1019 10 16 0.00 0.00
4:53 am 04:53 Mostly Cloudy 19 -7.2 15 -9.4 84 84 SE 3 6 30.07 1018 10 16 0.00 0.00
5:53 am 05:53 Mostly Cloudy 19 -7.2 15 -9.4 84 84 SE 5 7 30.06 1018 10 16 0.00 0.00
6:53 am 06:53 Mostly Clear 17 -8.3 14 -10 88 88 SE 6 9 30.04 1017 10 16 0.00 0.00
7:53 am 07:53 Mostly Sunny 19 -7.2 15 -9.4 84 84 S 6 9 30.04 1017 8 13 0.00 0.00
8:53 am 08:53 Mostly Sunny 20 -6.7 15 -9.4 81 81 SSW 7 11 30.02 1017 10 16 0.00 0.00
9:53 am 09:53 Mostly Sunny 23 -5 16 -8.9 74 74 SW 6 9 30.02 1017 10 16 0.00 0.00
10:53 am 10:53 Mostly Cloudy 26 -3.3 17 -8.3 69 69 S 8 13 29.99 1016 10 16 0.00 0.00
11:53 am 11:53 Mostly Cloudy 28 -2.2 18 -7.8 66 66 SSE 8 13 29.95 1014 10 16 0.00 0.00
12:53 pm 12:53 Mostly Cloudy 31 -0.6 19 -7.2 61 61 S 7 11 29.93 1013 10 16 0.00 0.00
1:53 pm 13:53 Mostly Cloudy 33 0.6 19 -7.2 56 56 SSE 13 20 29.89 1012 10 16 0.00 0.00
2:53 pm 14:53 Mostly Cloudy 33 0.6 19 -7.2 56 56 SSE 8 13 29.88 1012 10 16 0.00 0.00
3:53 pm 15:53 Cloudy 33 0.6 19 -7.2 56 56 SSE 14 22 29.87 1012 10 16 0.00 0.00
4:53 pm 16:53 Cloudy 32 0 20 -6.7 61 61 SSE 12 19 29.86 1011 10 16 0.00 0.00
5:53 pm 17:53 Cloudy 31 -0.6 20 -6.7 64 64 SSE 13 20 29.86 1011 10 16 0.00 0.00
6:53 pm 18:53 Mostly Cloudy 30 -1.1 21 -6.1 69 69 S 12 19 29.87 1012 10 16 0.00 0.00
7:53 pm 19:53 Mostly Cloudy 29 -1.7 21 -6.1 72 72 S 8 13 29.86 1011 10 16 0.00 0.00
8:53 pm 20:53 Partly Cloudy 28 -2.2 21 -6.1 75 75 S 8 13 29.86 1011 10 16 0.00 0.00
9:53 pm 21:53 Mostly Cloudy 26 -3.3 21 -6.1 81 81 SE 6 9 29.86 1011 10 16 0.00 0.00
10:53 pm 22:53 Partly Cloudy 24 -4.4 19 -7.2 81 81 SE 5 7 29.85 1011 10 16 0.00 0.00
11:53 pm 23:53 Partly Cloudy 25 -3.9 20 -6.7 81 81 SSE 3 6 29.85 1011 9 14 0.00 0.00

Powered by AerisWeather